Weather History for Burlington, VT

Change the Weather History Date:

Thursday, October 10, 2013

  Actual Average Record
Temperature  
Mean Temperature 53 °F 50 °F  
Max Temperature 66 °F 59 °F 81 °F (1909)
Min Temperature 40 °F 41 °F 25 °F (1943)
Degree Days  
Heating Degree Days 12 15  
Month to date heating degree days 70 132  
Since 1 July heating degree days 281 349  
Cooling Degree Days 0 0  
Month to date cooling degree days 4 0  
Year to date cooling degree days 662 489  
Growing Degree Days 2 (Base 50)    
Moisture  
Dew Point 42 °F    
Average Humidity 68    
Maximum Humidity 92    
Minimum Humidity 44    
Precipitation  
Precipitation 0.00 in 0.12 in 1.15 in (1971)
Month to date precipitation 1.41 1.23  
Year to date precipitation 38.84 28.94  
Snow  
Snow 0.00 in 0.00 in 4.40 in (1925)
Month to date snowfall 0.0 0.0  
Since 1 July snowfall 0.0 T  
Since 1 September snowfall 0.0 T  
Snow Depth 0.00 in    
Sea Level Pressure  
Sea Level Pressure 30.28 in    
Wind  
Wind Speed 1 mph (NE)    
Max Wind Speed 6 mph    
Max Gust Speed 8 mph    
Visibility 10 miles    
Events      
T = Trace of Precipitation, MM = Missing Value Source: NWS Daily Summary

Daily Weather History Graph

Daily Weather History Graph

Search for Another Location

Airport:

Trip Planner

Search our weather history database for the weather conditions in past years. The results will help you decide how hot, cold, wet, or windy it might be!

Date:

Astronomy

Oct. 10, 2013 Rise Set
Actual Time 7:01 AM EDT 6:16 PM EDT
Civil Twilight 6:32 AM EDT 6:45 PM EDT
Nautical Twilight 5:58 AM EDT 7:19 PM EDT
Astronomical Twilight 5:25 AM EDT 7:53 PM EDT
Moon 12:59 PM EDT (10/10) 10:43 PM EDT (10/10)
Length of Visible Light 12h 13m
Length of Day
11h 14m
Waxing Crescent, 35% of the Moon is Illuminated
Oct 10
Waxing Crescent
Oct 11
First Quarter
Oct 18
Full
Oct 26
Last Quarter
Nov 3
New

Hourly Weather History & Observations

Time (EDT) Temp. Windchill Dew Point Humidity Pressure Visibility Wind Dir Wind Speed Gust Speed Precip Events Conditions
12:54 AM 44.1 °F - 39.0 °F 82% 30.33 in 10.0 mi Calm Calm - N/A   Clear
1:54 AM 43.0 °F - 39.0 °F 86% 30.32 in 10.0 mi Calm Calm - N/A   Clear
2:54 AM 42.1 °F 40.2 °F 37.9 °F 85% 30.32 in 10.0 mi SE 3.5 mph - N/A   Clear
3:54 AM 43.0 °F - 39.0 °F 86% 30.31 in 10.0 mi Calm Calm - N/A   Clear
4:54 AM 39.9 °F - 37.9 °F 93% 30.32 in 10.0 mi Calm Calm - N/A   Clear
5:54 AM 41.0 °F 39.0 °F 37.9 °F 89% 30.32 in 10.0 mi ENE 3.5 mph - N/A   Clear
6:54 AM 41.0 °F 39.0 °F 37.9 °F 89% 30.33 in 10.0 mi NNE 3.5 mph - N/A   Clear
7:54 AM 42.1 °F - 39.0 °F 89% 30.35 in 10.0 mi Calm Calm - N/A   Clear
8:54 AM 46.0 °F - 39.9 °F 79% 30.34 in 10.0 mi Calm Calm - N/A   Clear
9:54 AM 48.0 °F - 42.1 °F 80% 30.33 in 10.0 mi Calm Calm - N/A   Clear
10:54 AM 53.1 °F - 43.0 °F 69% 30.32 in 10.0 mi Calm Calm - N/A   Clear
11:54 AM 57.0 °F - 41.0 °F 55% 30.31 in 10.0 mi Calm Calm - N/A   Partly Cloudy
12:54 PM 61.0 °F - 39.0 °F 44% 30.28 in 10.0 mi Calm Calm - N/A   Scattered Clouds
1:54 PM 63.0 °F - 43.0 °F 48% 30.27 in 10.0 mi SW 3.5 mph - N/A   Scattered Clouds
2:54 PM 64.0 °F - 42.1 °F 45% 30.25 in 10.0 mi Calm Calm - N/A   Partly Cloudy
3:54 PM 64.9 °F - 43.0 °F 45% 30.24 in 10.0 mi Calm Calm - N/A   Partly Cloudy
4:54 PM 64.0 °F - 44.1 °F 48% 30.23 in 10.0 mi Calm Calm - N/A   Partly Cloudy
5:54 PM 60.1 °F - 44.1 °F 55% 30.22 in 10.0 mi Calm Calm - N/A   Clear
6:54 PM 54.0 °F - 48.0 °F 80% 30.22 in 10.0 mi Calm Calm - N/A   Clear
7:54 PM 53.1 °F - 48.0 °F 83% 30.21 in 10.0 mi North 3.5 mph - N/A   Clear
8:54 PM 51.1 °F - 48.0 °F 89% 30.21 in 10.0 mi Calm Calm - N/A   Clear
9:54 PM 51.1 °F - 46.9 °F 86% 30.21 in 10.0 mi Calm Calm - N/A   Clear
10:54 PM 51.1 °F - 45.0 °F 80% 30.21 in 10.0 mi Calm Calm - N/A   Clear
11:54 PM 48.9 °F - 45.0 °F 86% 30.19 in 10.0 mi Calm Calm - N/A   Clear